Location: *
(12.5665°N, 8.3471°E)
Time: 02:38:02
(UTC+00:00)

Okean O Rocket - Pass Details

Date: 23 September 2019
Orbit: 623 x 644 km, 98.2° (Epoch: 18 October)

Event Time Altitude Azimuth Distance (km) Brightness Sun altitude
Rises 03:44:52 0° 37° (NE) 2,940 5.6 -23.0°
Reaches altitude 10° 03:47:39 10° 55° (NE) 2,028 5.0 -22.3°
Maximum altitude 03:50:44 19° 100° (E) 1,533 4.4 -21.5°
Drops below altitude 10° 03:53:48 10° 144° (SE) 2,020 4.6 -20.8°
Sets 03:56:33 0° 162° (SSE) 2,924 5.2 -20.1°
